timestamp,wind_dir_avg,wind_spd_max_dir,wind_spd_avg,wind_spd_gust,battery_voltage,lat,long
2017-09-29 00:00:00+00:00,231.0,235.0,8.18,9.47,12.6,47.59359,-54.27349
2017-09-29 00:10:00+00:00,229.0,226.0,8.78,9.93,12.5,47.59359,-54.27349
2017-09-29 00:20:00+00:00,233.0,232.0,7.58,8.7,12.6,47.59359,-54.27349
2017-09-29 00:30:00+00:00,242.0,238.0,9.72,10.8,12.6,47.59359,-54.27349
2017-09-29 00:40:00+00:00,230.0,232.0,9.34,11.4,12.6,47.59359,-54.27349
2017-09-29 00:50:00+00:00,228.0,232.0,10.71,12.39,12.6,47.59359,-54.27349
2017-09-29 01:00:00+00:00,227.0,230.0,10.84,12.52,12.6,47.59359,-54.27349
2017-09-29 01:10:00+00:00,226.0,226.0,9.37,10.79,12.5,47.59359,-54.27349
2017-09-29 01:20:00+00:00,229.0,228.0,9.81,10.82,12.6,47.59359,-54.27349
2017-09-29 01:30:00+00:00,241.0,244.0,9.36,11.99,12.6,47.59359,-54.27349
2017-09-29 01:40:00+00:00,247.0,251.0,9.65,11.26,12.6,47.59359,-54.27349
2017-09-29 01:50:00+00:00,245.0,244.0,8.78,11.15,12.6,47.59359,-54.27349
2017-09-29 02:00:00+00:00,245.0,246.0,8.43,10.05,12.6,47.59359,-54.27349
2017-09-29 02:10:00+00:00,249.0,253.0,7.95,9.84,12.5,47.59359,-54.27349
2017-09-29 02:20:00+00:00,250.0,253.0,8.14,9.36,12.6,47.59359,-54.27349
2017-09-29 02:30:00+00:00,244.0,243.0,8.96,10.48,12.6,47.59359,-54.27349
2017-09-29 02:40:00+00:00,247.0,250.0,9.04,10.95,12.6,47.59359,-54.27349
2017-09-29 02:50:00+00:00,242.0,238.0,9.88,11.7,12.6,47.59359,-54.27349
2017-09-29 03:00:00+00:00,259.0,256.0,8.64,9.9,12.6,47.59359,-54.27349
2017-09-29 03:10:00+00:00,253.0,251.0,8.19,8.95,12.5,47.59359,-54.27349
2017-09-29 03:20:00+00:00,246.0,245.0,7.91,9.12,12.6,47.59359,-54.27349
2017-09-29 03:30:00+00:00,235.0,245.0,6.8,8.07,12.6,47.59359,-54.27349
2017-09-29 03:40:00+00:00,247.0,255.0,5.81,6.93,12.6,47.59359,-54.27349
2017-09-29 03:50:00+00:00,279.0,278.0,5.25,6.5,12.6,47.59359,-54.27349
2017-09-29 04:00:00+00:00,289.0,286.0,9.05,10.2,12.6,47.59359,-54.27349
2017-09-29 04:10:00+00:00,288.0,290.0,6.19,6.73,12.5,47.59359,-54.27349
2017-09-29 04:20:00+00:00,281.0,280.0,5.36,5.84,12.6,47.59359,-54.27349
2017-09-29 04:30:00+00:00,263.0,268.0,3.75,4.57,12.6,47.59359,-54.27349
2017-09-29 04:40:00+00:00,265.0,266.0,3.65,3.92,12.6,47.59359,-54.27349
2017-09-29 04:50:00+00:00,245.0,253.0,2.98,3.37,12.6,47.59359,-54.27349
2017-09-29 05:00:00+00:00,269.0,271.0,3.26,3.85,12.6,47.59359,-54.27349
2017-09-29 05:10:00+00:00,273.0,275.0,4.87,6.01,12.5,47.59359,-54.27349
2017-09-29 05:20:00+00:00,242.0,252.0,3.32,4.16,12.6,47.59359,-54.27349
2017-09-29 05:30:00+00:00,248.0,252.0,4.21,4.72,12.6,47.59359,-54.27349
2017-09-29 05:40:00+00:00,217.0,217.0,3.8,4.08,12.6,47.59359,-54.27349
2017-09-29 05:50:00+00:00,224.0,222.0,3.63,4.04,12.6,47.59359,-54.27349
2017-09-29 06:00:00+00:00,238.0,241.0,4.22,4.68,12.6,47.59359,-54.27349
2017-09-29 06:10:00+00:00,252.0,250.0,4.16,4.56,12.5,47.59359,-54.27349
2017-09-29 06:20:00+00:00,230.0,232.0,3.21,3.57,12.6,47.59359,-54.27349
2017-09-29 07:10:00+00:00,258.0,260.0,5.78,6.31,12.5,47.59359,-54.27349
2017-09-29 07:30:00+00:00,278.0,284.0,4.88,5.58,12.6,47.59359,-54.27349
2017-09-29 07:40:00+00:00,275.0,276.0,4.74,5.17,12.6,47.59359,-54.27349
2017-09-29 08:00:00+00:00,321.0,329.0,5.05,5.58,12.6,47.59359,-54.27349
2017-09-29 08:10:00+00:00,317.0,321.0,4.79,5.4,12.5,47.59359,-54.27349
2017-09-29 08:20:00+00:00,328.0,327.0,4.49,5.54,12.6,47.59359,-54.27349
2017-09-29 08:30:00+00:00,316.0,315.0,4.34,4.82,12.6,47.59359,-54.27349
2017-09-29 08:40:00+00:00,317.0,319.0,4.38,4.85,12.6,47.59359,-54.27349
2017-09-29 09:10:00+00:00,315.0,0.0,0.01,0.0,12.5,47.59359,-54.27349
2017-09-29 11:20:00+00:00,328.0,326.0,3.81,4.18,12.6,47.59359,-54.27349
2017-09-29 11:30:00+00:00,332.0,332.0,4.52,5.16,12.7,47.59359,-54.27349
2017-09-29 11:40:00+00:00,340.0,341.0,4.3,5.31,12.9,47.59359,-54.27349
2017-09-29 11:50:00+00:00,341.0,335.0,4.93,5.92,13.1,47.59359,-54.27349
2017-09-29 12:00:00+00:00,338.0,340.0,4.92,5.77,13.3,47.59359,-54.27349
2017-09-29 12:10:00+00:00,341.0,344.0,6.27,7.31,13.7,47.59359,-54.27349
2017-09-29 12:20:00+00:00,344.0,345.0,6.03,6.57,14.0,47.59359,-54.27349
2017-09-29 12:30:00+00:00,344.0,339.0,5.91,6.83,13.9,47.59359,-54.27349
2017-09-29 12:40:00+00:00,340.0,341.0,5.17,5.68,13.9,47.59359,-54.27349
2017-09-29 12:50:00+00:00,336.0,334.0,4.95,5.46,14.0,47.59359,-54.27349
2017-09-29 13:00:00+00:00,347.0,347.0,6.27,7.11,13.6,47.59359,-54.27349
2017-09-29 13:10:00+00:00,350.0,348.0,7.21,8.11,13.9,47.59359,-54.27349
2017-09-29 13:20:00+00:00,347.0,344.0,7.41,8.17,14.0,47.59359,-54.27349
2017-09-29 13:30:00+00:00,342.0,342.0,7.58,8.66,13.9,47.59359,-54.27349
2017-09-29 13:40:00+00:00,346.0,350.0,6.07,6.61,14.1,47.59359,-54.27349
2017-09-29 13:50:00+00:00,346.0,345.0,9.04,10.6,14.1,47.59359,-54.27349
2017-09-29 14:00:00+00:00,344.0,346.0,8.46,9.36,13.8,47.59359,-54.27349
2017-09-29 14:10:00+00:00,337.0,340.0,6.93,8.14,14.0,47.59359,-54.27349
2017-09-29 14:20:00+00:00,358.0,357.0,8.02,8.6,14.0,47.59359,-54.27349
2017-09-29 14:30:00+00:00,355.0,3.0,7.5,8.49,14.0,47.59359,-54.27349
2017-09-29 14:40:00+00:00,334.0,329.0,7.2,9.65,14.1,47.59359,-54.27349
2017-09-29 14:50:00+00:00,347.0,349.0,7.71,8.78,13.7,47.59359,-54.27349
2017-09-29 15:00:00+00:00,356.0,1.0,5.69,6.77,13.7,47.59359,-54.27349
2017-09-29 15:10:00+00:00,356.0,357.0,7.81,9.76,13.8,47.59359,-54.27349
2017-09-29 15:20:00+00:00,351.0,350.0,6.66,8.17,13.8,47.59359,-54.27349
2017-09-29 15:30:00+00:00,345.0,345.0,7.22,8.28,13.7,47.59359,-54.27349
2017-09-29 15:40:00+00:00,340.0,336.0,7.01,7.95,13.8,47.59359,-54.27349
2017-09-29 15:50:00+00:00,342.0,345.0,5.93,7.48,13.8,47.59359,-54.27349
2017-09-29 16:00:00+00:00,329.0,329.0,8.05,9.13,13.7,47.59359,-54.27349
2017-09-29 16:10:00+00:00,332.0,339.0,8.13,9.05,14.0,47.59359,-54.27349
2017-09-29 16:20:00+00:00,354.0,355.0,7.09,7.76,13.7,47.59359,-54.27349
2017-09-29 16:30:00+00:00,326.0,324.0,6.08,6.8,13.7,47.59359,-54.27349
2017-09-29 16:40:00+00:00,343.0,340.0,7.52,8.2,13.8,47.59359,-54.27349
2017-09-29 16:50:00+00:00,343.0,349.0,6.2,7.47,13.6,47.59359,-54.27349
2017-09-29 17:00:00+00:00,1.0,359.0,6.8,7.8,13.7,47.59359,-54.27349
2017-09-29 17:10:00+00:00,330.0,331.0,7.48,8.34,13.7,47.59359,-54.27349
2017-09-29 17:20:00+00:00,357.0,351.0,7.8,8.73,13.7,47.59359,-54.27349
2017-09-29 17:30:00+00:00,342.0,335.0,6.34,7.35,13.8,47.59359,-54.27349
2017-09-29 17:40:00+00:00,0.0,359.0,5.05,5.59,14.2,47.59359,-54.27349
2017-09-29 17:50:00+00:00,10.0,10.0,8.78,10.06,13.7,47.59359,-54.27349
2017-09-29 18:00:00+00:00,0.0,3.0,8.25,8.81,13.8,47.59359,-54.27349
2017-09-29 18:10:00+00:00,358.0,356.0,9.4,10.51,13.7,47.59359,-54.27349
2017-09-29 18:20:00+00:00,353.0,354.0,7.27,7.95,13.7,47.59359,-54.27349
2017-09-29 18:30:00+00:00,352.0,1.0,7.98,10.15,13.8,47.59359,-54.27349
2017-09-29 18:40:00+00:00,345.0,343.0,7.74,8.24,13.7,47.59359,-54.27349
2017-09-29 18:50:00+00:00,358.0,354.0,11.42,12.7,13.7,47.59359,-54.27349
2017-09-29 19:00:00+00:00,4.0,8.0,8.99,10.11,13.9,47.59359,-54.27349
2017-09-29 19:10:00+00:00,359.0,356.0,9.8,11.0,13.7,47.59359,-54.27349
2017-09-29 19:20:00+00:00,2.0,1.0,8.69,10.31,13.7,47.59359,-54.27349
2017-09-29 19:30:00+00:00,1.0,2.0,9.48,10.94,13.8,47.59359,-54.27349
2017-09-29 19:40:00+00:00,2.0,4.0,9.44,10.58,14.0,47.59359,-54.27349
2017-09-29 19:50:00+00:00,18.0,17.0,9.99,11.4,14.0,47.59359,-54.27349
2017-09-29 20:00:00+00:00,14.0,13.0,9.86,11.03,13.9,47.59359,-54.27349
2017-09-29 20:10:00+00:00,21.0,15.0,7.74,10.2,13.7,47.59359,-54.27349
2017-09-29 20:20:00+00:00,13.0,17.0,8.76,9.97,13.8,47.59359,-54.27349
2017-09-29 20:30:00+00:00,14.0,20.0,10.01,11.6,13.7,47.59359,-54.27349
2017-09-29 20:40:00+00:00,13.0,14.0,8.52,10.0,13.7,47.59359,-54.27349
2017-09-29 20:50:00+00:00,25.0,29.0,9.95,11.56,13.6,47.59359,-54.27349
2017-09-29 21:00:00+00:00,26.0,27.0,9.15,10.67,13.4,47.59359,-54.27349
2017-09-29 21:10:00+00:00,15.0,19.0,8.73,9.57,13.2,47.59359,-54.27349
2017-09-29 21:20:00+00:00,30.0,30.0,10.33,11.48,13.2,47.59359,-54.27349
2017-09-29 21:30:00+00:00,24.0,23.0,8.14,9.62,13.1,47.59359,-54.27349
2017-09-29 21:40:00+00:00,30.0,29.0,10.71,13.07,13.0,47.59359,-54.27349
2017-09-29 21:50:00+00:00,21.0,12.0,9.43,11.74,13.0,47.59359,-54.27349
2017-09-29 22:00:00+00:00,22.0,14.0,9.69,11.54,13.0,47.59359,-54.27349
2017-09-29 22:10:00+00:00,24.0,29.0,10.04,11.66,12.8,47.59359,-54.27349
2017-09-29 22:20:00+00:00,27.0,22.0,9.89,11.42,12.8,47.59359,-54.27349
2017-09-29 22:30:00+00:00,32.0,34.0,10.6,11.89,12.8,47.59359,-54.27349
2017-09-29 22:40:00+00:00,23.0,25.0,10.34,12.84,12.8,47.59359,-54.27349
2017-09-29 22:50:00+00:00,32.0,26.0,10.48,12.37,12.8,47.59359,-54.27349
2017-09-29 23:00:00+00:00,22.0,31.0,10.57,12.55,12.7,47.59359,-54.27349
2017-09-29 23:10:00+00:00,25.0,26.0,10.86,13.23,12.6,47.59359,-54.27349
2017-09-29 23:20:00+00:00,21.0,13.0,9.47,12.05,12.7,47.59359,-54.27349
2017-09-29 23:30:00+00:00,40.0,46.0,10.82,13.17,12.7,47.59359,-54.27349
2017-09-29 23:40:00+00:00,30.0,32.0,9.67,11.23,12.8,47.59359,-54.27349
2017-09-29 23:50:00+00:00,35.0,38.0,9.71,11.26,12.8,47.59359,-54.27349
